EST,Max TemperatureF,Mean TemperatureF,Min TemperatureF,Max Dew PointF,MeanDew PointF,Min DewpointF,Max Humidity, Mean Humidity, Min Humidity, Max Sea Level PressureIn, Mean Sea Level PressureIn, Min Sea Level PressureIn, Max VisibilityMiles, Mean VisibilityMiles, Min VisibilityMiles, Max Wind SpeedMPH, Mean Wind SpeedMPH, Max Gust SpeedMPH,PrecipitationIn, CloudCover, Events, WindDirDegrees
2012-10-1,84,76,68,72,64,61,94,68,37,30.10,30.03,29.98,19,7,5,18,9,,0.02,2,Rain,150
2012-10-2,86,78,71,66,62,55,78,60,30,30.11,30.06,30.01,19,7,6,26,15,32,0.12,2,Rain,150
2012-10-3,80,74,69,70,67,63,94,83,52,30.12,30.06,30.01,7,5,2,24,11,31,0.39,6,Rain,164
2012-10-4,82,75,68,66,61,57,94,63,38,30.10,30.03,29.98,19,7,6,25,15,,0.00,4,Rain,155
2012-10-5,84,76,68,64,60,46,78,57,19,30.07,30.02,29.98,19,7,5,23,14,,0.00,3,Rain,158
2012-10-6,79,74,70,68,65,63,88,72,48,30.06,30.00,29.95,16,7,6,18,11,,0.01,6,Rain,166
2012-10-7,84,76,66,68,64,61,94,68,40,30.03,29.95,29.86,19,8,6,15,7,,0.00,4,,137
2012-10-8,82,72,61,67,65,61,100,77,50,29.94,29.87,29.80,19,7,6,10,3,,0.00,1,,26
2012-10-9,82,72,63,70,66,63,100,79,47,29.92,29.84,29.77,19,8,6,12,3,,0.00,1,Fog,13
2012-10-10,83,73,63,70,67,64,100,78,45,29.95,29.89,29.83,19,7,6,9,3,,0.00,1,Fog,45
2012-10-11,86,77,68,72,69,64,94,72,41,29.98,29.92,29.86,19,7,6,13,3,,0.00,3,,44
2012-10-12,86,78,69,70,63,56,100,61,32,30.05,29.99,29.92,19,6,6,22,6,,0.00,3,,150
2012-10-13,84,78,72,64,60,56,73,53,31,30.09,30.03,29.98,19,7,6,22,11,,0.00,5,,147
2012-10-14,85,78,69,65,61,57,73,59,29,30.12,30.05,30.01,19,7,6,22,13,,0.00,4,,151
2012-10-15,84,75,66,64,59,55,78,55,29,30.13,30.07,30.04,19,7,6,26,15,38,0.00,1,Rain,145
2012-10-16,86,78,70,61,59,55,69,53,30,30.11,30.05,30.01,19,7,6,22,13,,0.00,1,,152
2012-10-17,85,78,70,64,60,50,78,56,19,30.08,30.01,29.95,19,7,6,18,11,,0.00,2,Rain,152
2012-10-18,86,77,68,65,62,57,73,59,30,30.03,29.98,29.92,19,7,6,20,11,,0.00,2,,152
2012-10-19,82,76,70,72,66,62,94,74,48,30.01,29.96,29.89,16,6,4,24,12,,0.00,5,Rain,156
2012-10-20,86,76,67,64,62,57,78,59,31,30.01,29.95,29.89,19,7,6,22,13,,0.00,2,,145
2012-10-21,87,77,67,68,63,59,88,59,33,29.98,29.92,29.86,19,7,6,17,11,,0.00,3,,149
2012-10-22,88,80,73,70,68,65,83,69,39,29.95,29.89,29.83,19,7,6,21,11,,0.00,6,Rain,150
2012-10-23,86,76,65,70,66,57,94,69,40,29.95,29.88,29.83,19,7,6,16,7,,0.00,7,,139
2012-10-24,80,76,71,72,67,62,100,73,46,30.01,29.94,29.89,19,6,2,23,13,22,0.04,6,Rain,158
2012-10-25,84,76,68,68,63,61,88,65,39,29.98,29.91,29.86,16,7,6,18,12,,0.00,3,Rain,153
2012-10-26,84,74,64,65,62,59,88,67,42,29.93,29.86,29.80,19,8,6,14,9,,0.00,2,,106
2012-10-27,84,74,63,70,66,59,100,73,41,29.89,29.82,29.74,19,8,6,10,3,,0.00,4,Fog,48
2012-10-28,86,77,68,70,65,59,94,65,32,29.95,29.88,29.80,19,7,6,20,7,,0.00,2,,139
2012-10-29,86,80,73,68,66,63,83,63,41,29.98,29.92,29.86,19,7,6,17,9,,0.00,4,Rain,143
2012-10-30,88,80,71,70,67,64,83,66,35,29.97,29.91,29.86,19,7,6,16,9,,0.00,3,,144
2012-10-31,89,80,70,68,67,64,88,64,37,30.00,29.93,29.86,19,7,6,17,10,,0.00,2,,145